Wind_Speed
17 16 17 17 18 20 20 21 22 23 24 24 24 24 24 25 27 29 32 36 38 40 41 42 42 42 41 41 41 41 39 40 40 38 39 46 49 55 57 58 55 56 46 48 38
17 17 18 20 22 22 23 24 26 27 29 29 29 27 26 26 25 26 27 28 29 34 38 39 41 42 44 46 45 44 44 44 44 42 41 45 49 51 58 61 60 59 58 55 57
16 17 19 22 25 26 28 28 29 30 31 32 33 33 33 32 29 29 29 30 29 29 31 33 35 37 41 45 47 49 49 49 48 47 45 43 46 51 55 59 64 62 59 62 52
20 21 24 26 28 29 30 31 33 34 34 35 36 36 36 35 31 34 34 33 32 32 33 35 35 35 37 41 43 48 50 53 53 52 51 49 49 50 52 58 61 62 66 64 65
27 29 30 31 32 33 34 35 36 37 36 37 39 40 39 38 37 40 39 37 37 36 34 35 35 35 36 38 38 42 44 49 52 56 56 56 55 55 54 54 56 60 66 71 69
31 32 34 36 37 37 38 39 40 40 41 40 41 41 42 41 42 41 41 43 42 41 38 39 38 36 36 35 35 36 37 42 47 50 54 56 59 59 58 58 57 59 64 66 75
35 35 38 41 42 43 42 42 43 43 42 42 43 45 46 43 45 45 44 42 45 47 46 45 44 41 39 39 39 37 35 35 38 40 46 52 56 57 58 60 61 63 64 65 68
37 40 42 44 45 46 46 45 44 42 40 41 43 45 46 49 49 49 48 48 46 46 51 52 52 49 47 44 47 43 40 36 35 33 38 45 53 57 56 56 60 61 66 66 68
42 44 46 46 45 43 39 36 36 37 37 37 36 36 32 37 43 50 53 52 50 51 51 54 54 55 55 54 52 49 46 44 40 39 36 39 42 45 48 52 54 58 60 67 68
45 46 46 40 31 31 33 33 35 38 39 40 41 41 41 40 39 37 42 51 54 53 55 57 58 57 58 60 59 59 53 50 51 47 45 45 46 44 42 46 47 53 54 60 63
44 43 35 29 33 37 40 43 46 46 45 47 49 50 49 49 49 49 47 45 44 51 56 61 61 59 62 62 62 62 57 59 59 56 51 52 51 50 46 46 48 47 50 51 54
37 36 34 36 41 48 52 53 56 57 58 58 58 59 59 60 60 58 57 56 54 53 54 54 56 64 67 65 63 64 60 62 64 62 58 61 57 58 57 52 52 51 49 52 52
39 40 42 46 51 54 58 63 62 59 58 62 66 68 69 68 68 68 67 65 65 65 64 62 60 60 59 63 67 69 68 68 67 68 64 68 65 63 66 62 58 57 54 52 52
41 41 42 47 53 58 58 54 52 52 51 52 55 60 67 73 76 77 77 76 75 74 75 71 71 67 66 62 64 67 72 72 72 71 67 72 68 68 75 69 68 64 61 59 58
41 44 46 50 55 56 49 48 45 42 40 41 43 47 50 55 63 69 78 84 86 85 86 81 81 80 74 71 67 66 69 70 74 75 76 73 71 75 78 74 72 72 69 67 66
44 43 48 54 53 51 46 44 41 37 33 32 31 30 31 33 40 48 57 68 79 87 90 90 92 86 83 80 76 71 72 75 72 77 77 72 79 77 90 76 73 70 75 75 74
44 45 48 50 53 50 45 43 40 40 37 36 36 37 38 39 36 38 39 47 60 68 81 87 94 94 89 88 85 80 78 78 78 77 70 77 84 80 88 86 73 71 79 78 78
45 46 46 49 53 52 46 43 43 41 43 42 43 46 46 46 47 44 44 46 45 59 68 75 84 91 88 92 91 88 85 81 81 79 76 81 81 92 84 86 79 78 82 86 84
44 46 47 50 53 53 49 47 45 44 44 46 49 51 51 49 53 50 53 49 50 54 60 71 74 82 84 91 94 94 93 89 88 81 83 81 85 83 81 83 85 85 85 87 88
44 45 46 48 51 52 51 52 50 48 48 48 51 53 54 55 54 57 58 53 55 56 58 63 70 71 75 85 94 95 97 94 93 92 89 86 87 89 89 80 86 86 86 86 91
45 47 48 49 50 54 55 54 53 51 52 51 51 53 55 55 58 60 64 62 59 53 54 58 63 66 67 73 84 92 94 96 98 97 94 92 93 95 93 86 97 86 88 86 87
45 46 49 50 50 56 56 57 57 56 54 55 54 55 56 57 59 64 67 67 56 49 48 53 57 63 63 69 71 81 89 95 97 95 98 99 96 101 99 97 101 96 93 89 88
45 46 46 49 53 53 57 59 61 59 59 57 56 57 56 58 61 65 71 69 55 43 41 47 57 59 63 66 70 71 76 85 90 95 98 99 101 103 103 105 107 104 98 95 94
46 46 49 51 53 55 59 60 61 63 62 60 61 61 60 60 60 67 72 70 58 40 36 42 51 56 61 66 67 66 70 77 82 88 89 97 103 108 109 110 109 105 102 104 104
46 49 50 50 53 57 59 62 63 63 61 63 62 64 63 60 62 66 71 70 58 43 33 36 45 51 56 60 63 66 69 71 72 76 82 84 92 98 102 104 101 105 111 112 111
46 48 52 53 55 56 60 62 63 65 65 63 65 68 63 61 61 67 71 70 59 45 35 34 39 47 53 56 58 62 64 66 70 73 73 77 82 88 86 84 90 97 102 108 113
49 51 53 56 58 60 61 65 63 66 66 66 67 69 65 61 61 65 71 72 60 46 38 33 35 41 49 55 56 58 59 60 64 65 68 72 78 78 82 83 86 87 89 90 94
Wind_Direction
292 295 299 301 303 303 302 300 297 294 290 282 275 266 259 256 255 253 253 253 251 248 247 246 245 245 244 242 241 242 242 241 236 230 223 224 226 228 232 235 232 224 213 217 232
297 300 304 306 306 303 301 299 298 295 291 286 283 278 272 267 263 259 256 255 254 252 250 248 247 247 245 243 241 240 240 240 239 234 227 228 228 228 232 234 236 236 223 216 223
302 303 305 307 306 303 300 297 295 291 286 282 279 276 274 272 269 266 264 261 260 260 261 256 253 250 248 246 243 241 239 239 239 238 233 229 232 231 232 235 236 237 237 241 238
305 305 306 307 310 307 300 297 296 292 285 278 273 273 272 269 265 267 265 264 262 259 261 262 259 256 254 251 246 243 240 239 238 239 239 235 233 232 234 236 237 238 239 240 244
304 301 303 304 305 303 301 297 294 292 286 278 273 269 266 267 266 266 262 260 260 258 255 254 253 255 255 256 255 249 244 239 239 237 238 238 237 235 233 234 236 237 236 238 238
303 300 299 300 300 300 298 294 291 289 286 280 274 271 268 266 262 262 262 259 256 252 248 245 244 246 248 250 251 252 251 246 241 239 237 238 239 238 236 236 235 236 236 236 237
301 300 300 300 300 299 295 291 289 287 283 278 275 271 268 266 262 261 260 258 255 252 248 245 244 245 247 245 246 250 252 253 251 245 242 239 238 238 237 238 237 236 238 236 235
297 298 300 300 299 298 295 293 290 288 286 282 276 271 268 265 263 260 258 256 254 253 250 249 248 248 246 246 249 245 248 249 247 248 249 247 243 238 237 239 239 238 237 238 236
300 300 300 299 299 297 297 297 296 294 289 283 277 272 272 270 263 259 258 256 254 253 252 251 251 252 252 247 247 249 245 246 246 249 245 249 252 246 246 242 242 241 239 238 238
300 299 299 297 297 301 299 298 298 292 287 279 275 271 272 273 270 268 263 257 256 253 252 253 251 250 251 251 250 249 249 247 244 242 246 248 252 252 250 250 245 244 246 241 239
302 299 294 285 294 300 300 296 291 282 278 275 273 269 266 268 266 267 266 261 257 253 253 252 252 253 252 251 250 251 250 249 244 244 243 245 248 250 248 250 253 251 253 251 247
307 303 294 291 294 298 300 298 293 286 278 273 268 267 266 264 263 264 264 263 258 255 255 254 253 251 250 250 251 252 248 250 249 245 240 247 243 245 246 243 247 252 252 252 252
304 301 298 295 298 300 298 298 294 287 280 274 269 267 266 265 263 261 260 259 259 260 259 256 254 256 256 254 250 249 249 248 248 247 246 248 246 244 245 244 242 244 242 244 248
308 307 307 306 307 307 308 303 300 295 290 285 278 273 269 265 263 262 260 257 257 256 257 257 258 254 257 256 255 251 249 247 248 250 245 247 248 247 246 243 242 242 241 241 244
310 310 312 314 316 318 311 308 304 299 293 289 287 287 282 276 270 265 261 259 258 257 256 256 256 256 253 257 255 254 253 249 249 247 247 246 247 250 247 245 245 246 244 242 243
310 313 316 320 326 323 315 314 305 300 302 300 299 299 307 301 285 277 270 262 259 256 256 255 254 254 255 254 256 253 250 249 247 248 246 248 247 245 252 241 242 249 251 248 244
311 315 321 325 328 326 321 320 314 305 305 306 306 309 310 312 312 306 290 276 268 260 255 252 254 252 252 252 253 252 250 250 249 249 250 248 248 248 248 251 243 242 250 250 249
311 315 322 327 331 330 329 322 325 314 308 307 307 309 309 311 310 313 308 304 285 270 259 254 251 251 248 249 249 248 249 247 249 248 247 246 250 249 249 252 249 244 245 250 250
311 314 319 323 330 333 331 333 326 323 314 309 307 308 308 307 309 311 310 308 301 279 264 256 252 249 246 246 246 246 246 246 247 248 248 247 249 251 251 250 250 247 244 246 250
311 313 318 324 330 334 336 335 334 329 323 314 311 309 308 309 310 312 313 311 305 283 269 260 255 250 248 244 245 245 245 246 245 245 247 248 250 250 250 250 252 250 249 246 248
311 313 317 328 327 331 334 335 334 329 329 324 317 312 310 309 311 313 315 317 307 286 271 261 254 254 249 246 244 244 244 244 244 244 246 247 248 251 252 250 252 250 251 250 250
310 313 318 325 327 326 332 332 333 334 328 329 322 316 313 311 313 315 319 322 311 293 271 258 250 248 247 246 246 244 243 244 244 244 244 245 246 248 251 250 251 252 248 252 252
309 314 321 323 326 327 329 331 333 332 332 330 327 321 315 313 315 319 323 328 320 301 273 254 245 245 247 246 245 248 247 245 245 243 245 245 246 248 248 250 250 251 251 251 251
309 314 319 321 325 328 329 327 329 330 331 330 329 326 321 317 317 321 327 332 324 310 282 259 246 242 243 247 247 246 247 248 246 246 244 246 247 247 248 248 250 253 253 253 253
308 311 315 319 323 327 327 326 328 329 329 330 330 328 326 322 320 324 328 333 328 313 293 268 253 245 246 246 247 246 246 249 250 250 249 249 248 249 251 253 254 252 251 252 253
303 309 313 317 323 325 327 326 326 330 329 331 330 331 328 325 322 325 329 333 330 317 302 278 262 253 250 250 249 249 248 248 249 250 251 249 251 253 252 253 252 252 253 254 254
302 306 311 315 318 323 325 325 324 328 329 331 330 332 330 326 324 326 330 333 332 319 305 288 271 258 253 251 251 251 252 253 252 251 251 251 251 254 254 254 255 254 254 254 254
Height
10884 10883 10882 10880 10879 10877 10876 10875 10873 10872 10872 10872 10872 10871 10871 10872 10873 10874 10876 10877 10880 10881 10883 10886 10888 10891 10893 10896 10899 10902 10907 10909 10914 10921 10929 10928 10929 10930 10932 10932 10938 10943 10956 10956 10943
10881 10879 10877 10875 10874 10873 10871 10870 10868 10867 10866 10865 10865 10865 10866 10867 10867 10868 10869 10869 10871 10872 10874 10876 10879 10880 10883 10886 10889 10894 10897 10901 10904 10910 10916 10919 10921 10924 10924 10927 10929 10934 10941 10949 10949
10877 10875 10874 10871 10869 10868 10866 10865 10863 10862 10860 10859 10858 10859 10859 10860 10862 10861 10862 10863 10864 10865 10866 10867 10869 10871 10873 10875 10879 10883 10888 10891 10895 10899 10905 10911 10912 10916 10916 10919 10921 10925 10933 10931 10937
10873 10871 10869 10867 10865 10864 10862 10859 10857 10856 10854 10853 10852 10852 10852 10853 10856 10854 10854 10856 10857 10858 10858 10859 10860 10862 10864 10864 10868 10871 10876 10881 10885 10890 10894 10898 10901 10904 10908 10909 10911 10921 10921 10922 10924
10868 10866 10864 10862 10860 10858 10855 10853 10851 10849 10847 10846 10844 10845 10845 10846 10849 10846 10847 10848 10849 10849 10850 10851 10852 10854 10855 10855 10857 10860 10864 10869 10873 10878 10882 10885 10889 10891 10895 10899 10903 10905 10908 10912 10916
10863 10860 10857 10854 10852 10850 10847 10844 10841 10839 10837 10836 10835 10836 10836 10838 10837 10838 10839 10839 10840 10841 10842 10843 10845 10846 10847 10847 10848 10850 10854 10857 10860 10865 10869 10873 10876 10879 10883 10887 10891 10892 10894 10899 10903
10856 10853 10849 10846 10842 10840 10837 10835 10832 10829 10827 10826 10825 10824 10825 10828 10826 10827 10827 10829 10830 10831 10832 10834 10834 10837 10838 10839 10839 10842 10845 10847 10849 10854 10856 10860 10862 10865 10871 10872 10876 10879 10880 10885 10888
10849 10845 10842 10838 10834 10830 10827 10824 10821 10819 10817 10815 10813 10812 10812 10812 10814 10815 10815 10816 10818 10820 10821 10821 10823 10826 10827 10830 10828 10833 10836 10839 10840 10843 10845 10847 10848 10852 10857 10859 10861 10864 10867 10871 10873
10841 10837 10832 10829 10825 10820 10816 10814 10812 10809 10806 10804 10802 10800 10803 10799 10800 10800 10801 10803 10806 10807 10808 10809 10812 10813 10815 10818 10820 10822 10825 10829 10832 10833 10837 10837 10837 10842 10844 10846 10847 10849 10852 10856 10860
10833 10828 10823 10819 10815 10812 10809 10807 10804 10800 10797 10795 10793 10792 10791 10790 10789 10789 10789 10790 10791 10794 10795 10794 10795 10799 10802 10804 10807 10808 10815 10818 10818 10823 10827 10827 10826 10830 10833 10833 10836 10837 10838 10842 10846
10823 10818 10814 10811 10807 10804 10801 10798 10794 10790 10786 10783 10780 10779 10779 10778 10777 10778 10778 10778 10778 10779 10778 10777 10782 10787 10785 10788 10793 10796 10803 10801 10805 10809 10815 10814 10816 10817 10822 10823 10824 10826 10827 10828 10832
10814 10810 10807 10803 10799 10795 10790 10786 10781 10777 10770 10767 10764 10763 10763 10761 10762 10762 10761 10762 10764 10764 10763 10765 10768 10764 10768 10774 10780 10781 10787 10787 10788 10795 10803 10798 10805 10805 10807 10812 10814 10815 10817 10817 10819
10807 10803 10799 10794 10789 10783 10776 10770 10763 10757 10753 10749 10745 10744 10743 10743 10742 10743 10743 10744 10746 10746 10746 10748 10750 10750 10755 10759 10764 10765 10769 10770 10773 10776 10787 10783 10789 10792 10790 10797 10802 10803 10806 10806 10810
10799 10795 10790 10785 10778 10771 10761 10752 10745 10740 10735 10731 10727 10724 10722 10720 10721 10722 10721 10724 10724 10726 10724 10731 10730 10736 10736 10742 10744 10749 10750 10754 10757 10760 10769 10764 10775 10777 10771 10782 10784 10790 10793 10796 10796
10792 10786 10781 10774 10766 10757 10748 10740 10733 10727 10724 10719 10714 10709 10704 10701 10698 10699 10698 10697 10698 10703 10702 10711 10709 10711 10720 10722 10727 10733 10730 10737 10739 10742 10743 10753 10758 10755 10752 10763 10771 10774 10778 10780 10783
10782 10778 10771 10763 10756 10746 10738 10730 10724 10719 10713 10708 10703 10697 10692 10687 10682 10679 10673 10673 10672 10673 10677 10682 10679 10691 10698 10702 10706 10711 10711 10712 10720 10718 10726 10741 10733 10739 10716 10746 10755 10765 10760 10762 10767
10773 10768 10762 10753 10746 10737 10729 10721 10715 10707 10702 10697 10692 10686 10680 10673 10669 10663 10658 10654 10649 10648 10648 10649 10653 10663 10675 10678 10681 10688 10692 10694 10699 10701 10718 10712 10708 10722 10707 10717 10745 10749 10739 10742 10744
10764 10759 10753 10744 10736 10727 10719 10712 10704 10697 10691 10686 10680 10672 10667 10660 10653 10649 10642 10636 10635 10623 10620 10623 10627 10630 10651 10651 10654 10663 10666 10675 10675 10683 10693 10687 10692 10676 10702 10704 10717 10724 10722 10719 10722
10757 10751 10744 10736 10728 10719 10710 10703 10695 10688 10680 10673 10666 10660 10652 10648 10639 10634 10624 10620 10612 10602 10599 10593 10596 10603 10618 10623 10628 10635 10639 10649 10653 10667 10665 10672 10665 10671 10680 10681 10686 10692 10701 10701 10702
10750 10744 10737 10729 10721 10712 10703 10693 10686 10677 10669 10661 10654 10647 10637 10629 10622 10613 10606 10601 10591 10578 10573 10572 10573 10581 10588 10597 10599 10607 10612 10626 10632 10637 10644 10654 10651 10648 10651 10668 10662 10667 10674 10685 10681
10740 10734 10727 10720 10712 10704 10694 10687 10678 10669 10660 10650 10641 10632 10623 10615 10606 10597 10587 10574 10564 10555 10550 10548 10552 10556 10566 10569 10574 10580 10592 10596 10601 10612 10624 10630 10631 10628 10635 10648 10627 10650 10651 10659 10660
10731 10727 10717 10711 10705 10694 10688 10678 10668 10660 10649 10639 10628 10619 10609 10600 10591 10580 10569 10556 10543 10532 10528 10528 10534 10533 10543 10543 10552 10554 10561 10566 10577 10592 10595 10599 10610 10604 10611 10619 10614 10623 10629 10639 10642
10722 10717 10710 10702 10694 10689 10678 10669 10658 10650 10639 10630 10619 10608 10597 10586 10576 10567 10550 10538 10524 10514 10508 10510 10512 10517 10520 10525 10530 10535 10541 10546 10551 10560 10571 10578 10579 10580 10588 10586 10589 10594 10609 10615 10618
10710 10706 10697 10690 10682 10675 10667 10658 10651 10638 10629 10619 10607 10596 10584 10573 10564 10551 10536 10524 10507 10501 10494 10494 10497 10501 10503 10503 10511 10521 10520 10520 10527 10535 10549 10547 10553 10551 10556 10559 10567 10580 10588 10586 10590
10700 10694 10689 10683 10675 10665 10657 10648 10640 10631 10620 10607 10600 10584 10572 10561 10549 10538 10524 10511 10497 10488 10484 10481 10481 10485 10487 10490 10495 10498 10502 10503 10507 10513 10518 10525 10523 10526 10532 10539 10554 10559 10551 10553 10559
10691 10686 10678 10672 10665 10656 10647 10639 10629 10620 10608 10599 10586 10574 10562 10549 10538 10525 10513 10501 10487 10477 10472 10469 10469 10471 10473 10474 10478 10480 10484 10487 10491 10493 10497 10500 10503 10499 10508 10520 10521 10522 10529 10529 10530
10680 10675 10670 10663 10655 10645 10638 10629 10619 10609 10597 10586 10575 10564 10551 10539 10528 10516 10502 10489 10478 10467 10461 10458 10455 10456 10458 10459 10462 10463 10467 10471 10472 10475 10478 10481 10481 10488 10486 10492 10493 10497 10500 10503 10503